ARIANE 5 DEB (SYLDA), 41594

Orbit data source: Space-Track

ARIANE 5 DEB (SYLDA), 41594 is space debris in HEO originally from a launch on Sat, 18 Jun 2016 UTC launched from the French Guiana (FRGUI). Debris objects in space refer to the collection of defunct objects orbiting the Earth. Examples of debris include non-operational satellites, rocket bodies, and fragments generated from explosions, collisions, or faulty payload assembly.

Loading next visibility...
Identifier
41594, 2016-039D
Orbit
HEO
Last TLE update
13 hours ago
Origin
Manufacturer
ADS/Bremen
Mission
Spacecraft
Bus & Motor
SYLDA 5, Unknown motor
Mass
440 kg wet, 440 kg dry
Launch date (UTC)
2016-06-18 (9 years ago)
Launch vehicle
Unknown
Launch site
French Guiana (FRGUI)
Object type
Payload
Rocket body
Debris
Shape & HBR
Cyl, 5.5 m
Radar Cross Section
27.391 m², Large (>1 m²)

Expand to show TLE details & history

TLE from 13 hours ago
0 ARIANE 5 DEB (SYLDA)
1 41594U 16039D   25128.71345734  .00003399  00000-0  25919-2 0  9996
2 41594   5.9982 290.6052 5714670  41.6320 350.0776  4.37554827 98806
Epoch: 2025-05-08T17:07Z
Definitive object data (Epoch: 2025-05-08T17:07:22.714Z)
Latitude
0.00005°
Longitude
166.95353°
Altitude
1,079.434 km
Speed
9.036 km/s
True Right ascension
19h 22m 18s
True Declination
0° 00' 00"
Sunlit
Object was in daylight at TLE epoch
Visualization TLE readout
Latitude
-1.25056°
Longitude
-1.56458°
Altitude
14,539.995 km
Speed
3.587 km/s
Apparent Right ascension
07h 14m 48s
Apparent Declination
-12° 04' 36"
Sunlit
Object is in daylight
Visualization observer readout
Local Sidereal Time
13:52:48
Azimuth
266.623° W
Elevation
-14.953°
Doppler factor
1
Orbital elements
Apogee altitude
18,443.035 km
Perigee altitude
390.501 km
Semi-major axis
15,794.905 km
Eccentricity
0.571467
Inclination
5.9982°
RAAN
290.6052°
Arg. of periapsis
41.632°
True anomaly
318.47053°
Mean anomaly
350.0776°
Eccentric anomaly
337.60074°
Mean motion
1.09337 °/min
BSTAR
0.0025919
Orbital period
329.26 mins
Loading maneuver chart data...
Loading SW <> Apogee altitude chart data...
Loading historical data...
Loading historical data...
Loading historical data...
Loading historical data...
Loading historical data...
Loading historical data...
Loading historical data...
Other satellites on launch #39 in the year 2016 (2016-06-18 UTC)

ARIANE 5 DEB (SYLDA) Visibility forecast

Observer location: undefined°, undefined°

Span
Click to sort rows by Start time (UTC) header in descending order
Start Az.
Max El. time (UTC)
Max El. Az.
Max El.
End time (UTC)
End Az.
205 mins2025-05-09 21:05:05.394Z214.465° SW2025-05-09 21:33:05.394Z162.717° S25.993°2025-05-10 00:30:05.394Z124.256° SE
108 mins2025-05-10 03:56:05.394Z241.602° WSW2025-05-10 05:44:05.394Z226.12° WSW17.283°2025-05-10 05:44:05.394Z226.12° WSW
|